ATLAS 5 CENTAUR DEB, 43962

Orbit data source: Space-Track

ATLAS 5 CENTAUR DEB, 43962 is space debris in HEO originally from a launch on Wed, 17 Sep 2014 UTC launched from the Air Force Eastern Test Range (AFETR). Debris objects in space refer to the collection of defunct objects orbiting the Earth. Examples of debris include non-operational satellites, rocket bodies, and fragments generated from explosions, collisions, or faulty payload assembly.

Loading next visibility...
ATLAS 5 CENTAUR DEB details
Identifier
43962, 2014-055R
Orbit
HEO
Last TLE update2 days ago
Origin
Flag of USULA (US)
ManufacturerUnknown
MissionSpacecraft
Bus & MotorUnknown
MassUnknown
Launch date (UTC)
2014-09-17 (10 years ago)
Launch vehicleUnknown
Launch site
Air Force Eastern Test Range (AFETR)
Object type
Payload
Rocket body
Debris
Shape & HBRUnknown
Radar Cross SectionSmall (<0.1 m²)

Expand to show TLE details & history

TLE from 2 days ago
0 ATLAS 5 CENTAUR DEB
1 43962U 14055R   24359.90269888 -.00000004  00000-0  00000-0 0  9997
2 43962  20.0354 169.0263 5106173 123.2857 296.2700  1.90776271 43999
Epoch: 2024-12-24T21:39Z
Definitive object data (Epoch: 2024-12-24T21:39:53.183Z)
Latitude-0.00002°
Longitude110.1676°
Altitude21,789.345 km
Speed3.713 km/s
True Right ascension11h 16m 10s
True Declination0° 00' 00"
Sunlit
Object was in daylight at TLE epoch
Visualization TLE readout
Latitude-19.04363°
Longitude38.74483°
Altitude33,540.257 km
Speed2.336 km/s
Apparent Right ascension06h 26m 02s
Apparent Declination-21° 51' 49"
Sunlit
Object is in daylight
Visualization observer readout
Local Sidereal Time17:51:40
Azimuth335.43° NNW
Elevation-70.525°
Doppler factor1
Orbital elements
Apogee altitude35,108.338 km
Perigee altitude7,061.907 km
Semi-major axis27,463.26 km
Eccentricity0.5106173
Inclination20.0354°
RAAN169.0263°
Arg. of periapsis123.2857°
True anomaly236.79346°
Mean anomaly296.27°
Eccentric anomaly267.05249°
Mean motion0.47689 °/min
BSTARUnknown
Orbital period754.9 mins
Loading maneuver chart data...

ATLAS 5 CENTAUR DEB Visibility forecast

Observer location: undefined°, undefined

Span
Click to sort rows by Start time (UTC) header in descending order
Start Az.
Max El. time (UTC)
Max El. Az.
Max El.
End time (UTC)
End Az.
700 mins2024-12-27 02:51:10.123Z234.812° WSW2024-12-27 13:42:10.123Z162.044° S37.026°2024-12-27 14:31:10.123Z95.158° ESE
|